owner,sensor,date,latitude,longitude,vertical_datum,mass_concentration_of_oxygen_in_sea_water,qcFlag 
DISL,ioos:station:DISL:KATA:1,2015-02-01T00:00:00Z,30.2583,-88.2131,4.178,6.5,1111122 
DISL,ioos:station:DISL:KATA:1,2015-02-01T00:30:00Z,30.2583,-88.2131,4.198,6.52,1111122 
DISL,ioos:station:DISL:KATA:1,2015-02-01T01:00:00Z,30.2583,-88.2131,4.212,6.56,1111122 
DISL,ioos:station:DISL:KATA:1,2015-02-01T01:30:00Z,30.2583,-88.2131,4.211,6.46,1111122 
DISL,ioos:station:DISL:KATA:1,2015-02-01T02:00:00Z,30.2583,-88.2131,4.207,6.76,1111122 
DISL,ioos:station:DISL:KATA:1,2015-02-01T02:30:00Z,30.2583,-88.2131,4.203,6.55,1111122 
DISL,ioos:station:DISL:KATA:1,2015-02-01T03:00:00Z,30.2583,-88.2131,4.2,6.59,1111122 
DISL,ioos:station:DISL:KATA:1,2015-02-01T03:30:00Z,30.2583,-88.2131,4.181,6.51,1111122 
DISL,ioos:station:DISL:KATA:1,2015-02-01T04:00:00Z,30.2583,-88.2131,4.171,6.42,1111122 
DISL,ioos:station:DISL:KATA:1,2015-02-01T04:30:00Z,30.2583,-88.2131,4.15,6.29,1111122 
DISL,ioos:station:DISL:KATA:1,2015-02-01T05:00:00Z,30.2583,-88.2131,4.132,6.24,1111122 
DISL,ioos:station:DISL:KATA:1,2015-02-01T05:30:00Z,30.2583,-88.2131,4.107,5.61,1111122 
DISL,ioos:station:DISL:KATA:1,2015-02-01T06:00:00Z,30.2583,-88.2131,4.081,5.19,1111122 
DISL,ioos:station:DISL:KATA:1,2015-02-01T06:30:00Z,30.2583,-88.2131,4.031,4.87,1111122 
DISL,ioos:station:DISL:KATA:1,2015-02-01T07:00:00Z,30.2583,-88.2131,3.977,5.95,1111122 
DISL,ioos:station:DISL:KATA:1,2015-02-01T07:30:00Z,30.2583,-88.2131,3.929,6.46,1111122 
DISL,ioos:station:DISL:KATA:1,2015-02-01T08:00:00Z,30.2583,-88.2131,3.875,6.19,1111122 
DISL,ioos:station:DISL:KATA:1,2015-02-01T08:30:00Z,30.2583,-88.2131,3.825,6.75,1111122 
DISL,ioos:station:DISL:KATA:1,2015-02-01T09:00:00Z,30.2583,-88.2131,3.777,6.56,1111122 
DISL,ioos:station:DISL:KATA:1,2015-02-01T09:30:00Z,30.2583,-88.2131,3.737,4.86,1111122 
DISL,ioos:station:DISL:KATA:1,2015-02-01T10:00:00Z,30.2583,-88.2131,3.71,4.07,1111122 
DISL,ioos:station:DISL:KATA:1,2015-02-01T10:30:00Z,30.2583,-88.2131,3.693,5.72,1111122 
DISL,ioos:station:DISL:KATA:1,2015-02-01T11:00:00Z,30.2583,-88.2131,3.705,6.04,1111122 
DISL,ioos:station:DISL:KATA:1,2015-02-01T11:30:00Z,30.2583,-88.2131,3.729,6.02,1111122 
DISL,ioos:station:DISL:KATA:1,2015-02-01T12:00:00Z,30.2583,-88.2131,3.756,5.69,1111122 
DISL,ioos:station:DISL:KATA:1,2015-02-01T12:30:00Z,30.2583,-88.2131,3.792,6.22,1111122 
DISL,ioos:station:DISL:KATA:1,2015-02-01T13:00:00Z,30.2583,-88.2131,3.807,6.23,1111122 
DISL,ioos:station:DISL:KATA:1,2015-02-01T13:30:00Z,30.2583,-88.2131,3.823,5.95,1111122 
DISL,ioos:station:DISL:KATA:1,2015-02-01T14:00:00Z,30.2583,-88.2131,3.833,6.05,1111122 
DISL,ioos:station:DISL:KATA:1,2015-02-01T14:30:00Z,30.2583,-88.2131,3.844,6.13,1111122 
DISL,ioos:station:DISL:KATA:1,2015-02-01T15:00:00Z,30.2583,-88.2131,3.852,6.16,1111122 
DISL,ioos:station:DISL:KATA:1,2015-02-01T15:30:00Z,30.2583,-88.2131,3.872,6.09,1111122 
DISL,ioos:station:DISL:KATA:1,2015-02-01T16:00:00Z,30.2583,-88.2131,3.901,6.35,1111122 
DISL,ioos:station:DISL:KATA:1,2015-02-01T16:30:00Z,30.2583,-88.2131,3.922,6.4,1111122 
DISL,ioos:station:DISL:KATA:1,2015-02-01T17:00:00Z,30.2583,-88.2131,3.951,6.47,1111122 
DISL,ioos:station:DISL:KATA:1,2015-02-01T17:30:00Z,30.2583,-88.2131,3.979,6.64,1111122 
DISL,ioos:station:DISL:KATA:1,2015-02-01T18:00:00Z,30.2583,-88.2131,4.0,6.67,1111122 
DISL,ioos:station:DISL:KATA:1,2015-02-01T18:30:00Z,30.2583,-88.2131,4.045,6.62,1111122 
DISL,ioos:station:DISL:KATA:1,2015-02-01T19:00:00Z,30.2583,-88.2131,4.099,6.72,1111122 
DISL,ioos:station:DISL:KATA:1,2015-02-01T19:30:00Z,30.2583,-88.2131,4.13,6.78,1111122 
DISL,ioos:station:DISL:KATA:1,2015-02-01T20:00:00Z,30.2583,-88.2131,4.144,6.71,1111122 
DISL,ioos:station:DISL:KATA:1,2015-02-01T20:30:00Z,30.2583,-88.2131,4.161,6.75,1111122 
DISL,ioos:station:DISL:KATA:1,2015-02-01T21:00:00Z,30.2583,-88.2131,4.157,6.35,1111122 
DISL,ioos:station:DISL:KATA:1,2015-02-01T21:30:00Z,30.2583,-88.2131,4.171,6.45,1111122 
DISL,ioos:station:DISL:KATA:1,2015-02-01T22:00:00Z,30.2583,-88.2131,4.179,6.24,1111122 
DISL,ioos:station:DISL:KATA:1,2015-02-01T22:30:00Z,30.2583,-88.2131,4.199,6.66,1111122 
DISL,ioos:station:DISL:KATA:1,2015-02-01T23:00:00Z,30.2583,-88.2131,4.235,6.65,1111122 
DISL,ioos:station:DISL:KATA:1,2015-02-01T23:30:00Z,30.2583,-88.2131,4.272,6.68,1111122 
DISL,ioos:station:DISL:KATA:1,2015-02-02T00:00:00Z,30.2583,-88.2131,4.302,6.7,1111122 
DISL,ioos:station:DISL:KATA:1,2015-02-02T00:30:00Z,30.2583,-88.2131,4.329,6.48,1111122 
DISL,ioos:station:DISL:KATA:1,2015-02-02T01:00:00Z,30.2583,-88.2131,4.352,6.34,1111122 
DISL,ioos:station:DISL:KATA:1,2015-02-02T01:30:00Z,30.2583,-88.2131,4.369,6.47,1111122 
DISL,ioos:station:DISL:KATA:1,2015-02-02T02:00:00Z,30.2583,-88.2131,4.383,6.48,1111122 
DISL,ioos:station:DISL:KATA:1,2015-02-02T02:30:00Z,30.2583,-88.2131,4.378,6.32,1111122 
DISL,ioos:station:DISL:KATA:1,2015-02-02T03:00:00Z,30.2583,-88.2131,4.383,5.93,1111122 
DISL,ioos:station:DISL:KATA:1,2015-02-02T03:30:00Z,30.2583,-88.2131,4.368,4.73,1111122 
DISL,ioos:station:DISL:KATA:1,2015-02-02T04:00:00Z,30.2583,-88.2131,4.357,6.25,1111122 
DISL,ioos:station:DISL:KATA:1,2015-02-02T04:30:00Z,30.2583,-88.2131,4.346,6.28,1111122 
DISL,ioos:station:DISL:KATA:1,2015-02-02T05:00:00Z,30.2583,-88.2131,4.318,6.68,1111122 
DISL,ioos:station:DISL:KATA:1,2015-02-02T05:30:00Z,30.2583,-88.2131,4.337,6.78,1111122 
DISL,ioos:station:DISL:KATA:1,2015-02-02T06:00:00Z,30.2583,-88.2131,4.298,6.77,1111122 
DISL,ioos:station:DISL:KATA:1,2015-02-02T06:30:00Z,30.2583,-88.2131,4.328,6.77,1111122 
DISL,ioos:station:DISL:KATA:1,2015-02-02T07:00:00Z,30.2583,-88.2131,4.248,6.9,1111122 
DISL,ioos:station:DISL:KATA:1,2015-02-02T07:30:00Z,30.2583,-88.2131,4.163,7.12,1111122 
DISL,ioos:station:DISL:KATA:1,2015-02-02T08:00:00Z,30.2583,-88.2131,4.088,7.24,1111122 
DISL,ioos:station:DISL:KATA:1,2015-02-02T08:30:00Z,30.2583,-88.2131,4.06,7.68,1111122 
DISL,ioos:station:DISL:KATA:1,2015-02-02T09:00:00Z,30.2583,-88.2131,4.034,7.89,1111122 
DISL,ioos:station:DISL:KATA:1,2015-02-02T09:30:00Z,30.2583,-88.2131,3.972,8.04,1111122 
DISL,ioos:station:DISL:KATA:1,2015-02-02T10:00:00Z,30.2583,-88.2131,3.897,8.25,1111122 
DISL,ioos:station:DISL:KATA:1,2015-02-02T10:30:00Z,30.2583,-88.2131,3.844,8.1,1111122 
DISL,ioos:station:DISL:KATA:1,2015-02-02T11:00:00Z,30.2583,-88.2131,3.772,8.18,1111122 
DISL,ioos:station:DISL:KATA:1,2015-02-02T11:30:00Z,30.2583,-88.2131,3.753,8.3,1111122 
DISL,ioos:station:DISL:KATA:1,2015-02-02T12:00:00Z,30.2583,-88.2131,3.696,8.34,1111122 
DISL,ioos:station:DISL:KATA:1,2015-02-02T12:30:00Z,30.2583,-88.2131,3.788,8.4,1111122 
DISL,ioos:station:DISL:KATA:1,2015-02-02T13:00:00Z,30.2583,-88.2131,3.804,8.38,1111122 
DISL,ioos:station:DISL:KATA:1,2015-02-02T13:30:00Z,30.2583,-88.2131,3.726,8.44,1111122 
DISL,ioos:station:DISL:KATA:1,2015-02-02T14:00:00Z,30.2583,-88.2131,3.734,8.45,1111122 
DISL,ioos:station:DISL:KATA:1,2015-02-02T14:30:00Z,30.2583,-88.2131,3.697,8.49,1111122 
DISL,ioos:station:DISL:KATA:1,2015-02-02T15:00:00Z,30.2583,-88.2131,3.705,8.55,1111122 
DISL,ioos:station:DISL:KATA:1,2015-02-02T15:30:00Z,30.2583,-88.2131,3.684,8.56,1111122 
DISL,ioos:station:DISL:KATA:1,2015-02-02T16:00:00Z,30.2583,-88.2131,3.626,8.61,1111122 
DISL,ioos:station:DISL:KATA:1,2015-02-02T16:30:00Z,30.2583,-88.2131,3.603,8.59,1111122 
DISL,ioos:station:DISL:KATA:1,2015-02-02T17:00:00Z,30.2583,-88.2131,3.652,8.51,1111122 
DISL,ioos:station:DISL:KATA:1,2015-02-02T17:30:00Z,30.2583,-88.2131,3.695,8.51,1111122 
DISL,ioos:station:DISL:KATA:1,2015-02-02T18:00:00Z,30.2583,-88.2131,3.786,8.42,1111122 
DISL,ioos:station:DISL:KATA:1,2015-02-02T18:30:00Z,30.2583,-88.2131,3.857,8.51,1111122 
DISL,ioos:station:DISL:KATA:1,2015-02-02T19:00:00Z,30.2583,-88.2131,3.897,8.39,1111122 
DISL,ioos:station:DISL:KATA:1,2015-02-02T19:30:00Z,30.2583,-88.2131,3.92,8.42,1111122 
DISL,ioos:station:DISL:KATA:1,2015-02-02T20:00:00Z,30.2583,-88.2131,3.937,8.26,1111122 
DISL,ioos:station:DISL:KATA:1,2015-02-02T20:30:00Z,30.2583,-88.2131,3.941,8.05,1111122 
DISL,ioos:station:DISL:KATA:1,2015-02-02T21:00:00Z,30.2583,-88.2131,3.938,7.96,1111122 
DISL,ioos:station:DISL:KATA:1,2015-02-02T21:30:00Z,30.2583,-88.2131,3.967,8.48,1111122 
DISL,ioos:station:DISL:KATA:1,2015-02-02T22:00:00Z,30.2583,-88.2131,3.99,8.61,1111122 
DISL,ioos:station:DISL:KATA:1,2015-02-02T22:30:00Z,30.2583,-88.2131,4.03,8.58,1111122 
DISL,ioos:station:DISL:KATA:1,2015-02-02T23:00:00Z,30.2583,-88.2131,4.063,8.72,1111122 
DISL,ioos:station:DISL:KATA:1,2015-02-02T23:30:00Z,30.2583,-88.2131,4.08,8.68,1111122 
DISL,ioos:station:DISL:KATA:1,2015-02-03T00:00:00Z,30.2583,-88.2131,4.095,8.83,1111122 
DISL,ioos:station:DISL:KATA:1,2015-02-03T00:30:00Z,30.2583,-88.2131,4.126,8.78,1111122 
DISL,ioos:station:DISL:KATA:1,2015-02-03T01:00:00Z,30.2583,-88.2131,4.132,8.68,1111122 
DISL,ioos:station:DISL:KATA:1,2015-02-03T01:30:00Z,30.2583,-88.2131,4.155,8.6,1111122 
DISL,ioos:station:DISL:KATA:1,2015-02-03T02:00:00Z,30.2583,-88.2131,4.171,8.63,1111122 
DISL,ioos:station:DISL:KATA:1,2015-02-03T02:30:00Z,30.2583,-88.2131,4.174,8.74,1111122 
DISL,ioos:station:DISL:KATA:1,2015-02-03T03:00:00Z,30.2583,-88.2131,4.174,8.62,1111122 
DISL,ioos:station:DISL:KATA:1,2015-02-03T03:30:00Z,30.2583,-88.2131,4.164,8.5,1111122 
DISL,ioos:station:DISL:KATA:1,2015-02-03T04:00:00Z,30.2583,-88.2131,4.132,8.26,1111122 
DISL,ioos:station:DISL:KATA:1,2015-02-03T04:30:00Z,30.2583,-88.2131,4.096,7.92,1111122 
DISL,ioos:station:DISL:KATA:1,2015-02-03T05:00:00Z,30.2583,-88.2131,4.048,7.92,1111122 
DISL,ioos:station:DISL:KATA:1,2015-02-03T05:30:00Z,30.2583,-88.2131,4.012,8.42,1111122 
DISL,ioos:station:DISL:KATA:1,2015-02-03T06:00:00Z,30.2583,-88.2131,3.985,8.57,1111122 
DISL,ioos:station:DISL:KATA:1,2015-02-03T06:30:00Z,30.2583,-88.2131,3.96,8.66,1111122 
DISL,ioos:station:DISL:KATA:1,2015-02-03T07:00:00Z,30.2583,-88.2131,3.932,8.71,1111122 
DISL,ioos:station:DISL:KATA:1,2015-02-03T07:30:00Z,30.2583,-88.2131,3.869,8.8,1111122 
DISL,ioos:station:DISL:KATA:1,2015-02-03T08:00:00Z,30.2583,-88.2131,3.832,8.83,1111122 
DISL,ioos:station:DISL:KATA:1,2015-02-03T08:30:00Z,30.2583,-88.2131,3.794,8.84,1111122 
DISL,ioos:station:DISL:KATA:1,2015-02-03T09:00:00Z,30.2583,-88.2131,3.744,8.85,1111122 
DISL,ioos:station:DISL:KATA:1,2015-02-03T09:30:00Z,30.2583,-88.2131,3.708,8.88,1111122 
DISL,ioos:station:DISL:KATA:1,2015-02-03T10:00:00Z,30.2583,-88.2131,3.665,8.9,1111122 
DISL,ioos:station:DISL:KATA:1,2015-02-03T10:30:00Z,30.2583,-88.2131,3.641,8.91,1111122 
DISL,ioos:station:DISL:KATA:1,2015-02-03T11:00:00Z,30.2583,-88.2131,3.614,9.01,1111122 
DISL,ioos:station:DISL:KATA:1,2015-02-03T11:30:00Z,30.2583,-88.2131,3.587,8.99,1111122 
DISL,ioos:station:DISL:KATA:1,2015-02-03T12:00:00Z,30.2583,-88.2131,3.573,8.99,1111122 
DISL,ioos:station:DISL:KATA:1,2015-02-03T12:30:00Z,30.2583,-88.2131,3.569,9.05,1111122 
DISL,ioos:station:DISL:KATA:1,2015-02-03T13:00:00Z,30.2583,-88.2131,3.576,8.93,1111122 
DISL,ioos:station:DISL:KATA:1,2015-02-03T13:30:00Z,30.2583,-88.2131,3.607,8.84,1111122 
DISL,ioos:station:DISL:KATA:1,2015-02-03T14:00:00Z,30.2583,-88.2131,3.646,8.85,1111122 
DISL,ioos:station:DISL:KATA:1,2015-02-03T14:30:00Z,30.2583,-88.2131,3.666,8.54,1111122 
DISL,ioos:station:DISL:KATA:1,2015-02-03T15:00:00Z,30.2583,-88.2131,3.7,8.04,1111122 
DISL,ioos:station:DISL:KATA:1,2015-02-03T15:30:00Z,30.2583,-88.2131,3.712,7.76,1111122 
DISL,ioos:station:DISL:KATA:1,2015-02-03T16:00:00Z,30.2583,-88.2131,3.736,8.47,1111122 
DISL,ioos:station:DISL:KATA:1,2015-02-03T16:30:00Z,30.2583,-88.2131,3.746,8.69,1111122 
DISL,ioos:station:DISL:KATA:1,2015-02-03T17:00:00Z,30.2583,-88.2131,3.753,8.41,1111122 
DISL,ioos:station:DISL:KATA:1,2015-02-03T17:30:00Z,30.2583,-88.2131,3.77,8.76,1111122 
DISL,ioos:station:DISL:KATA:1,2015-02-03T18:00:00Z,30.2583,-88.2131,3.782,8.63,1111122 
DISL,ioos:station:DISL:KATA:1,2015-02-03T18:30:00Z,30.2583,-88.2131,3.799,8.47,1111122 
DISL,ioos:station:DISL:KATA:1,2015-02-03T19:00:00Z,30.2583,-88.2131,3.804,8.25,1111122 
DISL,ioos:station:DISL:KATA:1,2015-02-03T19:30:00Z,30.2583,-88.2131,3.827,8.28,1111122 
DISL,ioos:station:DISL:KATA:1,2015-02-03T20:00:00Z,30.2583,-88.2131,3.839,8.37,1111122 
DISL,ioos:station:DISL:KATA:1,2015-02-03T20:30:00Z,30.2583,-88.2131,3.841,8.08,1111122 
DISL,ioos:station:DISL:KATA:1,2015-02-03T21:00:00Z,30.2583,-88.2131,3.874,8.25,1111122 
DISL,ioos:station:DISL:KATA:1,2015-02-03T21:30:00Z,30.2583,-88.2131,3.889,8.51,1111122 
DISL,ioos:station:DISL:KATA:1,2015-02-03T22:00:00Z,30.2583,-88.2131,3.897,8.58,1111122 
DISL,ioos:station:DISL:KATA:1,2015-02-03T22:30:00Z,30.2583,-88.2131,3.905,8.62,1111122 
DISL,ioos:station:DISL:KATA:1,2015-02-03T23:00:00Z,30.2583,-88.2131,3.906,8.29,1111122 
DISL,ioos:station:DISL:KATA:1,2015-02-03T23:30:00Z,30.2583,-88.2131,3.919,8.31,1111122 
DISL,ioos:station:DISL:KATA:1,2015-02-04T00:00:00Z,30.2583,-88.2131,3.943,8.54,1111122 
DISL,ioos:station:DISL:KATA:1,2015-02-04T00:30:00Z,30.2583,-88.2131,3.98,7.99,1111122 
DISL,ioos:station:DISL:KATA:1,2015-02-04T01:00:00Z,30.2583,-88.2131,4.016,8.18,1111122 
DISL,ioos:station:DISL:KATA:1,2015-02-04T01:30:00Z,30.2583,-88.2131,4.053,8.02,1111122 
DISL,ioos:station:DISL:KATA:1,2015-02-04T02:00:00Z,30.2583,-88.2131,4.075,8.51,1111122 
DISL,ioos:station:DISL:KATA:1,2015-02-04T02:30:00Z,30.2583,-88.2131,4.096,8.51,1111122 
DISL,ioos:station:DISL:KATA:1,2015-02-04T03:00:00Z,30.2583,-88.2131,4.115,8.72,1111122 
DISL,ioos:station:DISL:KATA:1,2015-02-04T03:30:00Z,30.2583,-88.2131,4.108,8.64,1111122 
DISL,ioos:station:DISL:KATA:1,2015-02-04T04:00:00Z,30.2583,-88.2131,4.08,8.6,1111122 
DISL,ioos:station:DISL:KATA:1,2015-02-04T04:30:00Z,30.2583,-88.2131,4.054,8.41,1111122 
DISL,ioos:station:DISL:KATA:1,2015-02-04T05:00:00Z,30.2583,-88.2131,4.044,8.07,1111122 
DISL,ioos:station:DISL:KATA:1,2015-02-04T05:30:00Z,30.2583,-88.2131,4.016,7.28,1111122 
DISL,ioos:station:DISL:KATA:1,2015-02-04T06:00:00Z,30.2583,-88.2131,4.004,7.23,1111122 
DISL,ioos:station:DISL:KATA:1,2015-02-04T06:30:00Z,30.2583,-88.2131,3.985,7.48,1111122 
DISL,ioos:station:DISL:KATA:1,2015-02-04T07:00:00Z,30.2583,-88.2131,3.941,8.47,1111122 
DISL,ioos:station:DISL:KATA:1,2015-02-04T07:30:00Z,30.2583,-88.2131,3.899,8.59,1111122 
DISL,ioos:station:DISL:KATA:1,2015-02-04T08:00:00Z,30.2583,-88.2131,3.87,8.46,1111122 
DISL,ioos:station:DISL:KATA:1,2015-02-04T08:30:00Z,30.2583,-88.2131,3.836,8.48,1111122 
DISL,ioos:station:DISL:KATA:1,2015-02-04T09:00:00Z,30.2583,-88.2131,3.808,8.46,1111122 
DISL,ioos:station:DISL:KATA:1,2015-02-04T09:30:00Z,30.2583,-88.2131,3.773,8.47,1111122 
DISL,ioos:station:DISL:KATA:1,2015-02-04T10:00:00Z,30.2583,-88.2131,3.736,8.43,1111122 
DISL,ioos:station:DISL:KATA:1,2015-02-04T10:30:00Z,30.2583,-88.2131,3.703,8.3,1111122 
DISL,ioos:station:DISL:KATA:1,2015-02-04T11:00:00Z,30.2583,-88.2131,3.669,7.15,1111122 
DISL,ioos:station:DISL:KATA:1,2015-02-04T11:30:00Z,30.2583,-88.2131,3.636,7.04,1111122 
DISL,ioos:station:DISL:KATA:1,2015-02-04T12:00:00Z,30.2583,-88.2131,3.609,7.48,1111122 
DISL,ioos:station:DISL:KATA:1,2015-02-04T12:30:00Z,30.2583,-88.2131,3.582,7.7,1111122 
DISL,ioos:station:DISL:KATA:1,2015-02-04T13:00:00Z,30.2583,-88.2131,3.571,7.44,1111122 
DISL,ioos:station:DISL:KATA:1,2015-02-04T13:30:00Z,30.2583,-88.2131,3.566,7.82,1111122 
DISL,ioos:station:DISL:KATA:1,2015-02-04T14:00:00Z,30.2583,-88.2131,3.577,7.94,1111122 
DISL,ioos:station:DISL:KATA:1,2015-02-04T14:30:00Z,30.2583,-88.2131,3.605,7.72,1111122 
DISL,ioos:station:DISL:KATA:1,2015-02-04T15:00:00Z,30.2583,-88.2131,3.625,7.68,1111122 
DISL,ioos:station:DISL:KATA:1,2015-02-04T15:30:00Z,30.2583,-88.2131,3.635,7.55,1111122 
DISL,ioos:station:DISL:KATA:1,2015-02-04T16:00:00Z,30.2583,-88.2131,3.67,7.42,1111122 
DISL,ioos:station:DISL:KATA:1,2015-02-04T16:30:00Z,30.2583,-88.2131,3.693,7.2,1111122 
DISL,ioos:station:DISL:KATA:1,2015-02-04T17:00:00Z,30.2583,-88.2131,3.705,7.45,1111122 
DISL,ioos:station:DISL:KATA:1,2015-02-04T17:30:00Z,30.2583,-88.2131,3.722,6.92,1111122 
DISL,ioos:station:DISL:KATA:1,2015-02-04T18:00:00Z,30.2583,-88.2131,3.746,7.19,1111122 
DISL,ioos:station:DISL:KATA:1,2015-02-04T18:30:00Z,30.2583,-88.2131,3.75,7.0,1111122 
DISL,ioos:station:DISL:KATA:1,2015-02-04T19:00:00Z,30.2583,-88.2131,3.762,7.01,1111122 
DISL,ioos:station:DISL:KATA:1,2015-02-04T19:30:00Z,30.2583,-88.2131,3.762,6.67,1111122 
DISL,ioos:station:DISL:KATA:1,2015-02-04T20:00:00Z,30.2583,-88.2131,3.751,6.44,1111122 
DISL,ioos:station:DISL:KATA:1,2015-02-04T20:30:00Z,30.2583,-88.2131,3.744,6.73,1111122 
DISL,ioos:station:DISL:KATA:1,2015-02-04T21:00:00Z,30.2583,-88.2131,3.735,6.79,1111122 
DISL,ioos:station:DISL:KATA:1,2015-02-04T21:30:00Z,30.2583,-88.2131,3.741,6.74,1111122 
DISL,ioos:station:DISL:KATA:1,2015-02-04T22:00:00Z,30.2583,-88.2131,3.735,6.31,1111122 
DISL,ioos:station:DISL:KATA:1,2015-02-04T22:30:00Z,30.2583,-88.2131,3.757,6.52,1111122 
DISL,ioos:station:DISL:KATA:1,2015-02-04T23:00:00Z,30.2583,-88.2131,3.765,6.78,1111122 
DISL,ioos:station:DISL:KATA:1,2015-02-04T23:30:00Z,30.2583,-88.2131,3.805,6.47,1111122 
DISL,ioos:station:DISL:KATA:1,2015-02-05T00:00:00Z,30.2583,-88.2131,3.827,6.62,1111122 
DISL,ioos:station:DISL:KATA:1,2015-02-05T00:30:00Z,30.2583,-88.2131,3.866,6.37,1111122 
DISL,ioos:station:DISL:KATA:1,2015-02-05T01:00:00Z,30.2583,-88.2131,3.93,6.51,1111122 
DISL,ioos:station:DISL:KATA:1,2015-02-05T01:30:00Z,30.2583,-88.2131,4.007,6.47,1111122 
DISL,ioos:station:DISL:KATA:1,2015-02-05T02:00:00Z,30.2583,-88.2131,4.031,6.21,1111122 
DISL,ioos:station:DISL:KATA:1,2015-02-05T02:30:00Z,30.2583,-88.2131,4.082,6.19,1111122 
DISL,ioos:station:DISL:KATA:1,2015-02-05T03:00:00Z,30.2583,-88.2131,4.114,5.86,1111122 
DISL,ioos:station:DISL:KATA:1,2015-02-05T03:30:00Z,30.2583,-88.2131,4.148,5.69,1111122 
DISL,ioos:station:DISL:KATA:1,2015-02-05T04:00:00Z,30.2583,-88.2131,4.181,5.89,1111122 
DISL,ioos:station:DISL:KATA:1,2015-02-05T04:30:00Z,30.2583,-88.2131,4.186,6.2,1111122 
DISL,ioos:station:DISL:KATA:1,2015-02-05T05:00:00Z,30.2583,-88.2131,4.17,6.0,1111122 
DISL,ioos:station:DISL:KATA:1,2015-02-05T05:30:00Z,30.2583,-88.2131,4.153,5.54,1111122 
DISL,ioos:station:DISL:KATA:1,2015-02-05T06:00:00Z,30.2583,-88.2131,4.098,5.27,1111122 
DISL,ioos:station:DISL:KATA:1,2015-02-05T06:30:00Z,30.2583,-88.2131,4.069,5.38,1111122 
DISL,ioos:station:DISL:KATA:1,2015-02-05T07:00:00Z,30.2583,-88.2131,4.029,6.0,1111122 
DISL,ioos:station:DISL:KATA:1,2015-02-05T07:30:00Z,30.2583,-88.2131,3.954,5.96,1111122 
DISL,ioos:station:DISL:KATA:1,2015-02-05T08:00:00Z,30.2583,-88.2131,3.924,6.0,1111122 
DISL,ioos:station:DISL:KATA:1,2015-02-05T08:30:00Z,30.2583,-88.2131,3.964,5.04,1111122 
DISL,ioos:station:DISL:KATA:1,2015-02-05T09:00:00Z,30.2583,-88.2131,3.935,5.3,1111122 
DISL,ioos:station:DISL:KATA:1,2015-02-05T09:30:00Z,30.2583,-88.2131,3.908,5.47,1111122 
DISL,ioos:station:DISL:KATA:1,2015-02-05T10:00:00Z,30.2583,-88.2131,3.932,4.98,1111122 
DISL,ioos:station:DISL:KATA:1,2015-02-05T10:30:00Z,30.2583,-88.2131,3.882,5.03,1111122 
DISL,ioos:station:DISL:KATA:1,2015-02-05T11:00:00Z,30.2583,-88.2131,3.853,4.85,1111122 
DISL,ioos:station:DISL:KATA:1,2015-02-05T11:30:00Z,30.2583,-88.2131,3.832,5.33,1111122 
DISL,ioos:station:DISL:KATA:1,2015-02-05T12:00:00Z,30.2583,-88.2131,3.788,5.4,1111122 
DISL,ioos:station:DISL:KATA:1,2015-02-05T12:30:00Z,30.2583,-88.2131,3.763,4.79,1111122 
DISL,ioos:station:DISL:KATA:1,2015-02-05T13:00:00Z,30.2583,-88.2131,3.738,4.85,1111122 
DISL,ioos:station:DISL:KATA:1,2015-02-05T13:30:00Z,30.2583,-88.2131,3.73,4.66,1111122 
DISL,ioos:station:DISL:KATA:1,2015-02-05T14:00:00Z,30.2583,-88.2131,3.739,4.74,1111122 
DISL,ioos:station:DISL:KATA:1,2015-02-05T14:30:00Z,30.2583,-88.2131,3.752,4.94,1111122 
DISL,ioos:station:DISL:KATA:1,2015-02-05T15:00:00Z,30.2583,-88.2131,3.781,5.5,1111122 
DISL,ioos:station:DISL:KATA:1,2015-02-05T15:30:00Z,30.2583,-88.2131,3.783,5.36,1111122 
DISL,ioos:station:DISL:KATA:1,2015-02-05T16:00:00Z,30.2583,-88.2131,3.785,5.3,1111122 
DISL,ioos:station:DISL:KATA:1,2015-02-05T16:30:00Z,30.2583,-88.2131,3.791,5.17,1111122 
DISL,ioos:station:DISL:KATA:1,2015-02-05T17:00:00Z,30.2583,-88.2131,3.801,5.15,1111122 
DISL,ioos:station:DISL:KATA:1,2015-02-05T17:30:00Z,30.2583,-88.2131,3.812,4.93,1111122 
DISL,ioos:station:DISL:KATA:1,2015-02-05T18:00:00Z,30.2583,-88.2131,3.828,4.94,1111122 
DISL,ioos:station:DISL:KATA:1,2015-02-05T18:30:00Z,30.2583,-88.2131,3.855,5.06,1111122 
DISL,ioos:station:DISL:KATA:1,2015-02-05T19:00:00Z,30.2583,-88.2131,3.871,5.28,1111122 
DISL,ioos:station:DISL:KATA:1,2015-02-05T19:30:00Z,30.2583,-88.2131,3.88,5.47,1111122 
DISL,ioos:station:DISL:KATA:1,2015-02-05T20:00:00Z,30.2583,-88.2131,3.899,5.49,1111122 
DISL,ioos:station:DISL:KATA:1,2015-02-05T20:30:00Z,30.2583,-88.2131,3.909,5.55,1111122 
DISL,ioos:station:DISL:KATA:1,2015-02-05T21:00:00Z,30.2583,-88.2131,3.933,5.75,1111122 
DISL,ioos:station:DISL:KATA:1,2015-02-05T21:30:00Z,30.2583,-88.2131,3.916,5.09,1111122 
DISL,ioos:station:DISL:KATA:1,2015-02-05T22:00:00Z,30.2583,-88.2131,3.891,4.6,1111122 
DISL,ioos:station:DISL:KATA:1,2015-02-05T22:30:00Z,30.2583,-88.2131,3.859,5.21,1111122 
DISL,ioos:station:DISL:KATA:1,2015-02-05T23:00:00Z,30.2583,-88.2131,3.838,5.28,1111122 
DISL,ioos:station:DISL:KATA:1,2015-02-05T23:30:00Z,30.2583,-88.2131,3.824,4.69,1111122 
DISL,ioos:station:DISL:KATA:1,2015-02-06T00:00:00Z,30.2583,-88.2131,3.821,4.47,1111122 
DISL,ioos:station:DISL:KATA:1,2015-02-06T00:30:00Z,30.2583,-88.2131,3.823,4.08,1111122 
DISL,ioos:station:DISL:KATA:1,2015-02-06T01:00:00Z,30.2583,-88.2131,3.855,3.88,1111122 
DISL,ioos:station:DISL:KATA:1,2015-02-06T01:30:00Z,30.2583,-88.2131,3.878,2.61,1111122 
DISL,ioos:station:DISL:KATA:1,2015-02-06T02:00:00Z,30.2583,-88.2131,3.895,3.67,1111122 
DISL,ioos:station:DISL:KATA:1,2015-02-06T02:30:00Z,30.2583,-88.2131,3.914,4.05,1111122 
DISL,ioos:station:DISL:KATA:1,2015-02-06T03:00:00Z,30.2583,-88.2131,3.905,4.21,1111122 
DISL,ioos:station:DISL:KATA:1,2015-02-06T03:30:00Z,30.2583,-88.2131,3.884,4.0,1111122 
DISL,ioos:station:DISL:KATA:1,2015-02-06T04:00:00Z,30.2583,-88.2131,3.867,3.87,1111122 
DISL,ioos:station:DISL:KATA:1,2015-02-06T04:30:00Z,30.2583,-88.2131,3.844,3.86,1111122 
DISL,ioos:station:DISL:KATA:1,2015-02-06T05:00:00Z,30.2583,-88.2131,3.831,4.26,1111122 
DISL,ioos:station:DISL:KATA:1,2015-02-06T05:30:00Z,30.2583,-88.2131,3.818,4.21,1111122 
DISL,ioos:station:DISL:KATA:1,2015-02-06T06:00:00Z,30.2583,-88.2131,3.803,3.71,1111122 
DISL,ioos:station:DISL:KATA:1,2015-02-06T06:30:00Z,30.2583,-88.2131,3.799,3.33,1111122 
DISL,ioos:station:DISL:KATA:1,2015-02-06T07:00:00Z,30.2583,-88.2131,3.812,3.58,1111122 
DISL,ioos:station:DISL:KATA:1,2015-02-06T07:30:00Z,30.2583,-88.2131,3.817,4.95,1111122 
DISL,ioos:station:DISL:KATA:1,2015-02-06T08:00:00Z,30.2583,-88.2131,3.819,4.97,1111122 
DISL,ioos:station:DISL:KATA:1,2015-02-06T08:30:00Z,30.2583,-88.2131,3.812,4.87,1111122 
DISL,ioos:station:DISL:KATA:1,2015-02-06T09:00:00Z,30.2583,-88.2131,3.801,4.49,1111122 
DISL,ioos:station:DISL:KATA:1,2015-02-06T09:30:00Z,30.2583,-88.2131,3.78,3.92,1111122 
DISL,ioos:station:DISL:KATA:1,2015-02-06T10:00:00Z,30.2583,-88.2131,3.739,3.63,1111122 
DISL,ioos:station:DISL:KATA:1,2015-02-06T10:30:00Z,30.2583,-88.2131,3.694,3.85,1111122 
DISL,ioos:station:DISL:KATA:1,2015-02-06T11:00:00Z,30.2583,-88.2131,3.657,4.08,1111122 
DISL,ioos:station:DISL:KATA:1,2015-02-06T11:30:00Z,30.2583,-88.2131,3.627,3.65,1111122 
DISL,ioos:station:DISL:KATA:1,2015-02-06T12:00:00Z,30.2583,-88.2131,3.603,3.02,1111122 
DISL,ioos:station:DISL:KATA:1,2015-02-06T12:30:00Z,30.2583,-88.2131,3.587,2.24,1111122 
DISL,ioos:station:DISL:KATA:1,2015-02-06T13:00:00Z,30.2583,-88.2131,3.585,4.05,1111122 
DISL,ioos:station:DISL:KATA:1,2015-02-06T13:30:00Z,30.2583,-88.2131,3.597,4.16,1111122 
DISL,ioos:station:DISL:KATA:1,2015-02-06T14:00:00Z,30.2583,-88.2131,3.608,4.98,1111122 
DISL,ioos:station:DISL:KATA:1,2015-02-06T14:30:00Z,30.2583,-88.2131,3.63,5.07,1111122 
DISL,ioos:station:DISL:KATA:1,2015-02-06T15:00:00Z,30.2583,-88.2131,3.653,5.19,1111122 
DISL,ioos:station:DISL:KATA:1,2015-02-06T15:30:00Z,30.2583,-88.2131,3.667,4.8,1111122 